This is the latest recevied weather packets stored in our database for station/object XE2KK-10. If no packets are shown the sender has not sent any weather packets the latest 1 day(s).
| Time | Temp. | Humidity | Pressure | Rain* | Wind** | Luminosity | Snow |
|---|---|---|---|---|---|---|---|
| 1778035153 | 32.22° C | 35% | 1005.2 hPa | 0 mm | 0.89 m/s, 219° | 0 W/m² | - |
| 1778034853 | 32.22° C | 34% | 1005.2 hPa | 0 mm | 1.34 m/s, 324° | 0 W/m² | - |
| 1778034553 | 33.33° C | 33% | 1005 hPa | 0 mm | 0.89 m/s, 254° | 0 W/m² | - |
| 1778034253 | 33.33° C | 32% | 1004.8 hPa | 0 mm | 1.79 m/s, 300° | 0 W/m² | - |
| 1778033952 | 33.33° C | 32% | 1004.9 hPa | 0 mm | 1.79 m/s, 314° | 0 W/m² | - |
| 1778033652 | 33.89° C | 32% | 1004.8 hPa | 0 mm | 3.13 m/s, 7° | 0 W/m² | - |
| 1778033353 | 33.89° C | 32% | 1004.6 hPa | 0 mm | 1.34 m/s, 327° | 0 W/m² | - |
| 1778033053 | 33.89° C | 32% | 1004.6 hPa | 0 mm | 1.79 m/s, 274° | 0 W/m² | - |
| 1778032753 | 33.89° C | 31% | 1004.6 hPa | 0 mm | 2.68 m/s, 291° | 0 W/m² | - |
| 1778032453 | 34.44° C | 31% | 1004.8 hPa | 0 mm | 1.79 m/s, 292° | 0 W/m² | - |
| 1778032152 | 34.44° C | 30% | 1004.4 hPa | 0 mm | 1.79 m/s, 326° | 0 W/m² | - |
| 1778031852 | 34.44° C | 30% | 1004.6 hPa | 0 mm | 2.24 m/s, 308° | 0 W/m² | - |
| 1778031553 | 35° C | 30% | 1004.5 hPa | 0 mm | 1.79 m/s, 13° | 0 W/m² | - |
| 1778031253 | 35° C | 29% | 1004.6 hPa | 0 mm | 2.68 m/s, 323° | 0 W/m² | - |
| 1778030953 | 35° C | 30% | 1004.4 hPa | 0 mm | 1.79 m/s, 280° | 0 W/m² | - |
| 1778030653 | 35° C | 30% | 1004.4 hPa | 0 mm | 2.68 m/s, 354° | 0 W/m² | - |
| 1778030352 | 35° C | 30% | 1004 hPa | 0 mm | 1.79 m/s, 323° | 2 W/m² | - |
| 1778030052 | 35° C | 30% | 1004.1 hPa | 0 mm | 2.24 m/s, 333° | 3 W/m² | - |
| 1778029753 | 35.56° C | 29% | 1004 hPa | 0 mm | 0.89 m/s, 321° | 7 W/m² | - |
| 1778029453 | 35.56° C | 28% | 1003.8 hPa | 0 mm | 1.79 m/s, 261° | 11 W/m² | - |
| 1778029153 | 36.11° C | 29% | 1003.9 hPa | 0 mm | 0.45 m/s, 252° | 15 W/m² | - |
| 1778028853 | 36.11° C | 28% | 1003.7 hPa | 0 mm | 0.89 m/s, 262° | 18 W/m² | - |
| 1778028552 | 36.11° C | 28% | 1003.7 hPa | 0 mm | 1.79 m/s, 334° | 21 W/m² | - |
| 1778028252 | 36.11° C | 28% | 1003.6 hPa | 0 mm | 1.34 m/s, 358° | 23 W/m² | - |
| 1778027953 | 36.67° C | 28% | 1003.5 hPa | 0 mm | 1.34 m/s, 266° | 29 W/m² | - |
* Rain latest hour (hover to see other rain measurements)
** Current wind speed in m/s (hover to see current wind gust speed)